STARLINK-4590 (53606 NORAD) Tracking and Keplerian Element Data

This shows tracking and keplerian element data for the satellite.

Feedback or suggestion? Click here.




ElementValue
Catalog53606
NameSTARLINK-4590
Epoch Orbit1323
Epoch Day325.25001157
Epoch Year2022
RAAN241.1653
Inclination53.2148
Eccentricity0.0001899
Argument of Perigee39.8087
Mean Anonmoly331.1733
Mean Motion15.08806163
Decay Rate0.00048607
L11 53606U 22104U 22325.25001157 .00048607 00000+0 30540-2 0 9992
L22 53606 53.2148 241.1653 0001899 39.8087 331.1733 15.08806163 13237



Live tracking and technical data element details for STARLINK-4590 (NORAD 53606). STARLINK-4590 can be tracked NOW for your location showing map with azimuth and elevation plus other details from your city location.







IsCatalogInMostPopularTable: catalog: 53606, numindb: -1

Insert: records affected: 1


GetName: 53606 STARLINK-4590

Hit Count: inserted at: Thu, 08 Dec 2022 09:01:26 GMT